Radiation Dose at Monitoring Post of Fukushima Daini Nuclear Power Station
Date,Time,MP-1(microSv/h),MP-2(microSv/h),MP-3(microSv/h),MP-4(microSv/h),MP-5(microSv/h),MP-6(microSv/h),MP-7(microSv/h),Wind Direction,Wind Velocity(m/s),Rain
2018/11/09,00:00,0.309,0.190,0.303,0.292,0.280,0.153,0.094,north,5.8,No
2018/11/09,00:10,0.309,0.189,0.306,0.292,0.278,0.153,0.093,north-northwest,6.2,No
2018/11/09,00:20,0.312,0.189,0.305,0.291,0.280,0.153,0.093,north,5.6,No
2018/11/09,00:30,0.309,0.190,0.305,0.293,0.278,0.153,0.093,north,6.3,No
2018/11/09,00:40,0.311,0.189,0.304,0.293,0.280,0.152,0.095,north-northwest,6.2,No
2018/11/09,00:50,0.309,0.190,0.304,0.292,0.279,0.153,0.093,north-northwest,5.6,No
2018/11/09,01:00,0.311,0.190,0.305,0.291,0.280,0.153,0.093,north-northwest,5.8,No
2018/11/09,01:10,0.309,0.191,0.304,0.294,0.280,0.153,0.094,north,6.1,No
2018/11/09,01:20,0.311,0.190,0.305,0.291,0.279,0.154,0.094,north,5.5,No
2018/11/09,01:30,0.309,0.190,0.305,0.293,0.280,0.154,0.094,north,5.5,No
2018/11/09,01:40,0.311,0.190,0.305,0.290,0.280,0.154,0.094,north,5.6,No
2018/11/09,01:50,0.310,0.190,0.303,0.293,0.281,0.153,0.094,north,5.8,No
2018/11/09,02:00,0.310,0.191,0.306,0.291,0.280,0.154,0.093,north,5.8,Yes
2018/11/09,02:10,0.310,0.191,0.305,0.294,0.280,0.154,0.094,north,6.4,Yes
2018/11/09,02:20,0.311,0.193,0.307,0.293,0.278,0.155,0.095,north,6.2,Yes
2018/11/09,02:30,0.312,0.192,0.305,0.293,0.282,0.154,0.095,north,5.5,No
2018/11/09,02:40,0.311,0.191,0.306,0.293,0.279,0.155,0.095,north,5.1,Yes
2018/11/09,02:50,0.313,0.191,0.307,0.292,0.282,0.155,0.095,north,4.4,No
2018/11/09,03:00,0.309,0.191,0.305,0.293,0.279,0.155,0.095,north,4.6,Yes
2018/11/09,03:10,0.312,0.191,0.306,0.292,0.282,0.156,0.095,north,5.4,Yes
2018/11/09,03:20,0.309,0.190,0.304,0.293,0.280,0.154,0.095,north,4.2,Yes
2018/11/09,03:30,0.309,0.192,0.307,0.291,0.280,0.156,0.096,north,4.0,Yes
2018/11/09,03:40,0.310,0.191,0.304,0.292,0.279,0.154,0.096,north,3.2,Yes
2018/11/09,03:50,0.309,0.191,0.304,0.291,0.279,0.155,0.095,north,3.3,Yes
2018/11/09,04:00,0.308,0.190,0.304,0.290,0.279,0.154,0.096,north,2.9,Yes
2018/11/09,04:10,0.308,0.192,0.304,0.292,0.278,0.154,0.096,north,2.6,No
2018/11/09,04:20,0.308,0.190,0.305,0.290,0.280,0.154,0.095,north,3.2,No
2018/11/09,04:30,0.308,0.190,0.301,0.292,0.278,0.154,0.095,north,1.5,No
2018/11/09,04:40,0.308,0.189,0.304,0.289,0.278,0.153,0.094,north,1.7,No
2018/11/09,04:50,0.306,0.190,0.301,0.290,0.277,0.153,0.094,north,1.8,No
2018/11/09,05:00,0.308,0.189,0.302,0.288,0.278,0.153,0.094,north,2.0,No
2018/11/09,05:10,0.306,0.190,0.302,0.289,0.277,0.153,0.094,north,2.8,No
2018/11/09,05:20,0.306,0.189,0.302,0.289,0.279,0.153,0.094,north,3.4,No
2018/11/09,05:30,0.306,0.189,0.302,0.289,0.277,0.154,0.094,north,2.9,No
2018/11/09,05:40,0.307,0.188,0.303,0.288,0.278,0.151,0.094,north,3.0,Yes
2018/11/09,05:50,0.306,0.189,0.301,0.289,0.277,0.153,0.094,north,1.7,Yes
2018/11/09,06:00,0.307,0.189,0.302,0.289,0.277,0.152,0.094,north-northeast,2.0,Yes
2018/11/09,06:10,0.307,0.187,0.303,0.288,0.279,0.152,0.093,north,2.7,Yes
2018/11/09,06:20,0.307,0.190,0.301,0.291,0.277,0.153,0.094,north,1.7,Yes
2018/11/09,06:30,0.307,0.189,0.303,0.288,0.277,0.154,0.094,north,2.6,Yes
2018/11/09,06:40,0.307,0.191,0.301,0.290,0.277,0.154,0.094,north-northeast,2.5,Yes
2018/11/09,06:50,0.309,0.189,0.304,0.290,0.279,0.153,0.095,north-northeast,1.2,Yes
2018/11/09,07:00,0.307,0.190,0.302,0.290,0.276,0.154,0.094,-,CALM,No
2018/11/09,07:10,0.308,0.189,0.302,0.290,0.278,0.153,0.094,-,CALM,Yes
2018/11/09,07:20,0.305,0.189,0.301,0.288,0.275,0.153,0.093,east-southeast,1.2,Yes
2018/11/09,07:30,0.306,0.189,0.300,0.288,0.279,0.153,0.094,east-southeast,1.8,Yes
2018/11/09,07:40,0.305,0.189,0.302,0.289,0.274,0.153,0.094,east,1.1,No
2018/11/09,07:50,0.306,0.189,0.301,0.289,0.279,0.152,0.094,-,CALM,Yes
2018/11/09,08:00,0.306,0.189,0.302,0.288,0.276,0.153,0.095,northwest,1.5,Yes
2018/11/09,08:10,0.304,0.191,0.300,0.290,0.279,0.153,0.094,northwest,1.0,Yes
2018/11/09,08:20,0.308,0.190,0.303,0.288,0.276,0.155,0.095,northwest,1.6,Yes
2018/11/09,08:30,0.305,0.190,0.300,0.289,0.280,0.154,0.095,north-northwest,1.7,Yes
2018/11/09,08:40,0.307,0.190,0.302,0.288,0.277,0.153,0.095,north-northwest,1.8,Yes
2018/11/09,08:50,0.305,0.190,0.300,0.290,0.279,0.154,0.095,north-northwest,1.5,Yes
2018/11/09,09:00,0.307,0.189,0.301,0.288,0.277,0.154,0.094,northwest,0.9,Yes
2018/11/09,09:10,0.304,0.190,0.299,0.288,0.278,0.152,0.095,-,CALM,Yes
2018/11/09,09:20,0.306,0.188,0.298,0.286,0.276,0.154,0.095,-,CALM,Yes
2018/11/09,09:30,0.303,0.189,0.299,0.287,0.278,0.153,0.094,-,CALM,Yes
2018/11/09,09:40,0.305,0.188,0.298,0.287,0.277,0.154,0.096,northwest,1.0,Yes
2018/11/09,09:50,0.304,0.188,0.300,0.287,0.278,0.151,0.094,-,CALM,Yes
2018/11/09,10:00,0.305,0.188,0.297,0.286,0.276,0.151,0.094,southwest,0.6,Yes
2018/11/09,10:10,0.304,0.190,0.299,0.286,0.278,0.151,0.094,south-southwest,1.8,Yes
2018/11/09,10:20,0.306,0.188,0.297,0.285,0.275,0.153,0.094,southwest,3.6,Yes
2018/11/09,10:30,0.302,0.189,0.299,0.288,0.278,0.151,0.093,south-southwest,3.8,Yes
2018/11/09,10:40,0.304,0.187,0.299,0.285,0.275,0.151,0.093,south-southwest,4.9,Yes
2018/11/09,10:50,0.302,0.188,0.297,0.287,0.276,0.151,0.094,south-southwest,5.8,Yes
2018/11/09,11:00,0.303,0.187,0.298,0.285,0.275,0.150,0.094,south-southwest,6.9,Yes
2018/11/09,11:10,0.302,0.189,0.297,0.287,0.275,0.152,0.094,south-southwest,6.4,Yes
2018/11/09,11:20,0.302,0.187,0.296,0.284,0.277,0.150,0.094,south-southwest,7.3,Yes
2018/11/09,11:30,0.300,0.187,0.294,0.283,0.273,0.151,0.094,south-southwest,7.7,Yes
2018/11/09,11:40,0.299,0.186,0.294,0.280,0.276,0.150,0.094,south-southwest,6.7,Yes
2018/11/09,11:50,0.300,0.188,0.295,0.283,0.274,0.151,0.093,south-southwest,7.2,Yes
2018/11/09,12:00,0.299,0.187,0.295,0.281,0.277,0.150,0.095,south-southwest,5.8,Yes
2018/11/09,12:10,0.302,0.187,0.294,0.284,0.274,0.151,0.094,south-southwest,5.8,Yes
2018/11/09,12:20,0.300,0.187,0.295,0.282,0.277,0.149,0.094,south-southwest,6.0,Yes
2018/11/09,12:30,0.300,0.187,0.292,0.281,0.272,0.150,0.094,south-southwest,7.1,Yes
2018/11/09,12:40,0.297,0.186,0.295,0.281,0.274,0.150,0.094,south,7.2,Yes
2018/11/09,12:50,0.300,0.187,0.293,0.280,0.276,0.149,0.094,south,7.8,Yes
2018/11/09,13:00,0.299,0.186,0.294,0.282,0.276,0.149,0.094,south,8.1,Yes
2018/11/09,13:10,0.299,0.187,0.293,0.282,0.276,0.148,0.094,south,7.8,Yes
2018/11/09,13:20,0.300,0.187,0.295,0.283,0.274,0.150,0.094,south,8.8,Yes
2018/11/09,13:30,0.299,0.186,0.293,0.282,0.276,0.149,0.093,south,7.7,Yes
2018/11/09,13:40,0.300,0.186,0.295,0.284,0.273,0.148,0.094,south,8.6,Yes
2018/11/09,13:50,0.298,0.185,0.292,0.281,0.275,0.148,0.092,south,8.4,Yes
2018/11/09,14:00,0.300,0.185,0.294,0.284,0.275,0.148,0.093,south,7.1,Yes
2018/11/09,14:10,0.298,0.186,0.294,0.281,0.275,0.149,0.093,south,7.5,Yes
2018/11/09,14:20,0.300,0.185,0.295,0.285,0.275,0.148,0.093,south,6.5,Yes
2018/11/09,14:30,0.299,0.186,0.293,0.282,0.274,0.148,0.093,south,7.0,Yes
2018/11/09,14:40,0.299,0.185,0.295,0.283,0.277,0.147,0.093,south,6.8,Yes
2018/11/09,14:50,0.300,0.186,0.293,0.281,0.275,0.148,0.092,south,7.0,Yes
2018/11/09,15:00,0.299,0.185,0.296,0.284,0.277,0.147,0.092,south,8.5,Yes
2018/11/09,15:10,0.302,0.187,0.294,0.282,0.273,0.148,0.092,south,9.2,Yes
2018/11/09,15:20,0.298,0.187,0.294,0.284,0.274,0.148,0.093,south,7.7,Yes
2018/11/09,15:30,0.299,0.186,0.292,0.281,0.273,0.149,0.092,south,8.7,Yes
2018/11/09,15:40,0.297,0.186,0.293,0.282,0.275,0.148,0.095,south,7.5,Yes
2018/11/09,15:50,0.299,0.186,0.293,0.281,0.274,0.148,0.093,south,6.2,Yes
2018/11/09,16:00,0.297,0.188,0.294,0.283,0.277,0.148,0.094,south,10.4,Yes
2018/11/09,16:10,0.300,0.187,0.294,0.281,0.274,0.149,0.095,south,8.5,Yes
2018/11/09,16:20,0.299,0.188,0.292,0.284,0.276,0.148,0.094,south,10.3,Yes
2018/11/09,16:30,0.299,0.187,0.292,0.281,0.274,0.149,0.093,south,11.5,Yes
2018/11/09,16:40,0.297,0.186,0.292,0.281,0.275,0.149,0.093,south,10.6,Yes
2018/11/09,16:50,0.299,0.186,0.293,0.280,0.275,0.148,0.093,south,9.0,Yes
2018/11/09,17:00,0.298,0.185,0.291,0.281,0.272,0.148,0.093,south,9.3,Yes
2018/11/09,17:10,0.298,0.185,0.293,0.280,0.276,0.147,0.093,south-southwest,8.8,Yes
2018/11/09,17:20,0.297,0.186,0.292,0.281,0.273,0.148,0.093,south,8.5,Yes
2018/11/09,17:30,0.299,0.184,0.291,0.281,0.275,0.147,0.093,south,7.7,No
2018/11/09,17:40,0.298,0.185,0.292,0.280,0.273,0.148,0.093,south,7.6,No
2018/11/09,17:50,0.297,0.186,0.291,0.281,0.275,0.146,0.092,south,7.4,No
2018/11/09,18:00,0.299,0.183,0.291,0.280,0.273,0.147,0.092,south,8.6,No
2018/11/09,18:10,0.297,0.184,0.293,0.282,0.275,0.145,0.092,south,8.7,No
2018/11/09,18:20,0.299,0.184,0.293,0.279,0.274,0.146,0.092,south,7.4,No
2018/11/09,18:30,0.296,0.183,0.294,0.283,0.275,0.146,0.091,south,8.8,No
2018/11/09,18:40,0.298,0.184,0.291,0.279,0.273,0.146,0.091,south,9.6,Yes
2018/11/09,18:50,0.295,0.184,0.294,0.282,0.272,0.146,0.091,south,11.2,Yes
2018/11/09,19:00,0.297,0.185,0.293,0.280,0.276,0.146,0.091,south,13.7,Yes
2018/11/09,19:10,0.297,0.184,0.294,0.282,0.273,0.147,0.091,south,13.1,No
2018/11/09,19:20,0.298,0.184,0.292,0.281,0.275,0.147,0.090,south,11.5,Yes
2018/11/09,19:30,0.297,0.183,0.294,0.282,0.272,0.146,0.091,south,11.5,Yes
2018/11/09,19:40,0.296,0.185,0.292,0.281,0.275,0.146,0.091,south,10.9,No
2018/11/09,19:50,0.298,0.184,0.295,0.283,0.273,0.145,0.091,south,10.1,No
2018/11/09,20:00,0.295,0.183,0.292,0.281,0.277,0.147,0.091,south,11.1,No
2018/11/09,20:10,0.298,0.184,0.295,0.283,0.273,0.145,0.091,south-southwest,9.2,No
2018/11/09,20:20,0.296,0.185,0.292,0.282,0.274,0.147,0.090,south-southwest,7.5,No
2018/11/09,20:30,0.299,0.184,0.294,0.282,0.274,0.147,0.091,south,7.4,No
2018/11/09,20:40,0.296,0.184,0.294,0.283,0.275,0.147,0.091,south,6.8,No
2018/11/09,20:50,0.297,0.184,0.294,0.281,0.275,0.147,0.091,south,6.9,No
2018/11/09,21:00,0.297,0.185,0.293,0.282,0.274,0.147,0.090,south-southwest,7.3,No
2018/11/09,21:10,0.298,0.184,0.294,0.282,0.275,0.147,0.092,south-southwest,5.8,No
2018/11/09,21:20,0.298,0.185,0.293,0.283,0.275,0.146,0.090,south,5.6,No
2018/11/09,21:30,0.297,0.184,0.293,0.281,0.275,0.145,0.091,south,6.2,No
2018/11/09,21:40,0.297,0.184,0.294,0.282,0.273,0.146,0.091,south-southwest,7.6,No
2018/11/09,21:50,0.296,0.185,0.293,0.282,0.276,0.147,0.091,south-southwest,8.2,No
2018/11/09,22:00,0.299,0.185,0.294,0.282,0.273,0.146,0.091,south-southwest,7.2,No
2018/11/09,22:10,0.296,0.184,0.295,0.282,0.275,0.148,0.091,south-southwest,7.8,No
2018/11/09,22:20,0.298,0.184,0.292,0.283,0.274,0.147,0.091,south-southwest,8.1,No
2018/11/09,22:30,0.298,0.185,0.295,0.282,0.276,0.147,0.091,south-southwest,7.8,No
2018/11/09,22:40,0.301,0.184,0.294,0.282,0.274,0.147,0.091,south-southwest,7.7,No
2018/11/09,22:50,0.296,0.184,0.294,0.282,0.275,0.146,0.091,south-southwest,8.1,No
2018/11/09,23:00,0.300,0.183,0.293,0.282,0.274,0.147,0.091,south-southwest,6.5,No
2018/11/09,23:10,0.297,0.185,0.294,0.282,0.275,0.146,0.091,south-southwest,5.7,No
2018/11/09,23:20,0.299,0.183,0.295,0.282,0.273,0.147,0.090,south,5.7,No
2018/11/09,23:30,0.297,0.185,0.295,0.282,0.275,0.147,0.091,south,5.8,No
2018/11/09,23:40,0.298,0.185,0.294,0.283,0.273,0.147,0.092,south,5.7,No
2018/11/09,23:50,0.297,0.186,0.294,0.282,0.276,0.148,0.091,south,5.0,No
